Location: Conteville
(50.7443°N, 1.7322°E)
Time: 06:35:15
(UTC+00:00)

Daily predictions for brighter satellites

Satellite Brightness Start Highest point End
(mag) Time Altitude Azimuth Time Altitude Azimuth Time Altitude Azimuth
Cosmos 1975 Rocket 4.1 20:46:22 10° SSE 20:50:09 30° E 20:53:58 10° NNE
Cosmos 1758 3.3 20:47:15 10° N 20:51:15 70° ENE 20:55:12 10° SSE
Cosmos 1371 Rocket 4.2 20:49:32 10° SSW 20:54:42 80° WNW 20:59:56 10° NNE
Cosmos 1238 4.5 20:51:46 10° SSW 20:55:20 80° W 20:58:26 10° N
Cosmos 2100 Rocket 4.5 20:49:14 10° N 20:55:27 50° ENE 21:01:35 10° SSE
Geosat 4.1 20:51:01 10° SSE 20:56:04 83° WSW 21:01:08 10° NNW
Cosmos 2278 Rocket 4.5 20:53:45 10° N 20:57:16 16° NNE 21:00:46 10° ENE
NOSS 3-2 (C) 3.5 20:51:50 10° SSW 20:57:20 55° ESE 21:03:41 10° NE
Cosmos 1980 Rocket 2.9 20:52:17 10° SW 20:57:52 61° NW 21:03:27 10° NNE
NOSS 3-2 (A) 3.4 20:52:23 10° SW 20:58:04 84° SE 21:04:44 10° NE
Spot 2 Rocket 3.5 20:53:27 10° SSE 20:58:29 79° ENE 21:03:35 10° NNW
Cosmos 1420 Rocket 4.0 20:53:46 10° SSW 20:58:54 69° ESE 21:04:06 10° NNE
Cosmos 1674 Rocket 4.1 20:55:33 10° SSW 20:59:55 63° WNW 21:04:18 10° N
SPOT 3 Rocket 4.3 20:55:38 10° S 21:00:39 52° W 21:05:45 10° NNW
SPOT 5 3.3 20:56:13 10° SSE 21:01:19 59° ENE 21:06:12 10° N
ARIANE 5 R/B 2.7 20:58:02 10° SSE 21:02:27 76° ENE 21:06:57 10° NNW
Cosmos 1674 3.6 21:00:32 10° SSE 21:03:50 31° E 21:07:09 10° NNE
ATLAS 3B R/B 4.1 21:06:25 10° SE 21:10:06 16° ESE 21:13:50 10° ENE
ERS-1 Rocket 3.1 21:05:19 10° SSE 21:10:19 70° ENE 21:15:21 10° N
Cosmos 1741 Rocket 4.1 21:06:53 10° NNW 21:12:10 71° ENE 21:17:21 10° SSE
Lacrosse 5 2.3 21:09:53 10° WNW 21:14:48 51° SW 21:19:33 11° SSE
Cosmos 292 Rocket 3.8 21:10:26 10° SSW 21:15:14 68° ESE 21:20:02 10° NNE
Cosmos 1844 Rocket 3.1 21:10:06 10° NNW 21:15:44 59° NE 21:21:16 10° SE
Cosmos 1461 3.4 21:12:29 10° NW 21:16:45 56° NE 21:20:47 10° ESE
Cosmos 1908 3.6 21:13:58 10° N 21:17:49 53° ENE 21:21:21 11° SSE
Cosmos 2173 Rocket 4.2 21:12:11 10° N 21:18:33 67° ENE 21:24:53 10° SSE
Cosmos 2016 Rocket 4.5 21:14:53 10° N 21:20:47 47° ENE 21:26:23 11° SE
Cosmos 1953 2.4 21:16:58 10° N 21:21:02 66° ENE 21:24:51 11° SSE
Terra 2.0 21:18:34 10° SSE 21:23:10 65° ENE 21:27:55 10° N
Cosmos 1707 3.2 21:23:07 10° SSW 21:26:57 61° WNW 21:30:50 10° N
USA 215 3.9 21:21:19 10° ENE 21:27:06 33° SE 21:32:53 10° SSW
Cosmos 2263 Rocket 3.6 21:22:30 10° NW 21:27:30 33° WSW 21:32:31 10° SSW
USA 81 4.5 21:22:23 10° NNW 21:27:37 63° W 21:32:47 10° S
Cosmos 1726 3.8 21:24:30 10° NNW 21:27:42 29° W 21:30:53 10° SSW
Cosmos 1727 Rocket 4.1 21:22:07 10° S 21:28:27 88° W 21:34:47 10° N
Cosmos 1725 Rocket 4.5 21:24:40 10° N 21:30:40 49° ENE 21:36:06 13° SE
Cosmos 1544 Rocket 3.9 21:26:22 10° N 21:30:47 56° ENE 21:34:38 13° SSE
USA 238 DEB 3.8 21:26:03 10° SW 21:32:39 83° NW 21:39:40 10° NE
USA 238 3.8 21:26:09 10° SW 21:32:45 83° NW 21:39:46 10° NE
Cosmos 1340 4.0 21:31:14 13° SE 21:33:39 24° E 21:36:43 10° NE
Cosmos 2285 Rocket 4.3 21:28:56 10° SSW 21:35:22 76° WNW 21:41:51 10° NNE
Cosmos 1455 Rocket 3.1 21:31:39 10° NNW 21:36:07 84° W 21:40:20 11° S
ATLAS CENTAUR R/B 2.5 21:34:03 10° NNW 21:38:04 41° NE 21:42:20 10° ESE
SL-14 R/B 4.4 21:35:27 14° SSE 21:38:18 30° E 21:41:52 10° NNE
Cosmos 2333 Rocket 3.5 21:34:43 13° SSE 21:38:31 24° ESE 21:42:59 10° NE
Cosmos 1802 Rocket 4.1 21:33:29 10° N 21:39:45 75° E 21:45:31 13° SSE
Aureole 1 Rocket 3.9 21:37:47 10° NNW 21:43:09 86° ENE 21:49:18 14° SSE
In-Cosmos 22 4.3 21:39:15 10° SSW 21:44:32 75° WNW 21:49:51 10° N
GEOS 3 Rocket 3.8 21:44:23 12° SE 21:49:23 81° NE 21:54:45 10° NW
CENTAUR R/B 3.0 21:45:26 10° SW 21:51:33 71° NW 21:58:58 10° NE
H-2A R/B 3.5 21:48:24 10° NNE 21:52:28 60° ESE 21:55:57 14° S
Cosmos 1844 3.7 21:47:27 10° NNW 21:53:03 87° ENE 21:57:38 16° SSE
Cosmos 1110 Rocket 4.1 21:50:38 10° S 21:55:42 59° ESE 22:00:50 10° NNE
Resurs 01 Rocket 4.3 21:59:46 10° WSW 22:01:18 12° W 22:02:50 10° WNW
Cosmos 2219 Rocket 3.1 21:58:17 16° SSE 22:01:53 30° ESE 22:06:45 10° NE
USA 267 3.4 21:56:11 10° ESE 22:02:44 81° NNE 22:09:18 10° WNW
Cosmos 1536 Rocket 3.9 22:01:43 17° SSE 22:04:57 50° E 22:09:17 10° NNE
DNEPR-1 R/B 3.7 22:02:16 10° NW 22:06:31 68° NE 22:09:58 16° SE
Cosmos 1459 Rocket 4.3 22:00:51 10° NNW 22:06:49 61° W 22:12:28 11° S
Cosmos 405 2.9 22:04:36 10° N 22:08:05 74° ENE 22:10:11 22° SSE
Cosmos 968 Rocket 4.0 22:04:41 10° NNW 22:09:40 49° ENE 22:13:42 15° SE
Cosmos 2061 Rocket 4.1 22:03:53 10° N 22:10:22 86° W 22:15:44 16° S
Cosmos 2237 Rocket 4.2 22:12:23 10° ESE 22:14:19 12° E 22:16:15 10° ENE
Cosmos 1452 Rocket 4.2 22:09:55 10° SW 22:15:06 57° WNW 22:20:20 10° NNE
Cosmos 1626 2.3 22:13:05 13° SSW 22:16:15 69° WNW 22:19:57 10° N
SL-16 R/B 3.1 22:12:19 10° SW 22:17:50 52° NW 22:23:24 10° NNE
SL-8 R/B 3.9 22:13:55 10° W 22:18:33 49° SSW 22:22:09 16° SE
NOSS 8 (A) 4.4 22:18:23 10° SW 22:21:32 66° NW 22:24:28 10° NE
Cosmos 2322 Rocket 2.8 22:16:25 10° SW 22:22:03 59° NW 22:27:44 10° NNE
Cosmos 2360 Rocket 2.2 22:16:24 10° SSW 22:22:03 89° WNW 22:27:45 10° NNE
Meteor 2-10 Rocket 3.8 22:17:28 10° N 22:22:33 54° ENE 22:26:01 19° SE
Genesis I 4.5 22:20:00 10° WSW 22:23:44 44° NW 22:27:34 10° NNE
Cosmos 1025 Rocket 3.5 22:21:20 11° SSW 22:25:33 59° WNW 22:29:54 10° N
COSMOS 2428 3.3 22:26:04 19° SSE 22:29:39 39° ESE 22:34:58 10° NE
Cosmos 2228 3.3 22:29:39 10° N 22:34:01 59° ENE 22:36:41 22° SSE
Cosmos 2123 Rocket 4.2 22:28:18 12° SSW 22:34:13 77° WNW 22:40:35 10° N
Cosmos 1455 3.6 22:30:53 10° N 22:34:16 28° ENE 22:36:27 17° ESE
Cosmos 2322 3.8 22:30:23 16° S 22:34:53 59° ESE 22:40:27 10° NE
Cosmos 1346 Rocket 3.6 22:35:15 23° SSE 22:37:09 38° E 22:40:54 10° NNE
Cosmos 1300 3.1 22:36:50 10° NNW 22:40:34 54° W 22:42:49 22° SSW
Meteor 2-5 Rocket 3.7 22:36:19 17° S 22:40:41 86° E 22:46:19 10° NNE
Cosmos 2278 Rocket 2.8 22:37:10 10° NNW 22:42:44 52° NE 22:47:25 14° SE
Cosmos 2233 Rocket 4.0 22:38:31 10° NNW 22:44:40 80° W 22:49:07 20° S
Cosmos 2058 Rocket 4.3 22:40:43 10° N 22:44:48 33° ENE 22:47:35 17° SE
Lacrosse 5 rocket 1.3 22:43:30 23° SSW 22:45:17 42° SE 22:48:42 10° ENE
Cosmos 1331 Rocket 4.4 22:40:13 10° SW 22:45:25 66° WNW 22:50:42 10° NNE
Cosmos 1867 3.7 22:44:39 10° NW 22:50:10 74° NE 22:54:32 16° SE
FALCON 9 DEB 3.1 22:47:34 10° SW 22:50:53 53° SSE 22:54:14 10° ENE
Cosmos 1461 4.5 22:52:08 10° WNW 22:55:28 23° WSW 22:57:10 18° SSW
Lacrosse 5 4.1 22:55:16 10° WSW 22:56:46 11° WSW 22:58:15 10° SW
Cosmos 1844 Rocket 4.0 22:54:31 10° NW 22:59:18 28° WSW 23:02:55 15° SSW
ATLAS 3B R/B 2.6 22:53:03 10° SSW 22:59:33 69° SE 23:06:19 10° NE
Cosmos 1726 Rocket 3.7 22:56:01 10° N 23:00:30 71° ENE 23:02:59 26° SSE
Terra 3.9 22:58:00 10° SW 23:01:23 19° W 23:04:46 10° NW
BREEZE-M DEB (TANK) 2.5 22:58:27 10° WSW 23:01:31 62° SSE 23:09:35 10° E
Cosmos 1302 Rocket 4.0 22:57:33 16° SSW 23:01:51 87° WNW 23:07:09 10° NNE
Cosmos 389 Rocket 2.4 23:05:18 10° NNW 23:08:42 69° W 23:10:03 33° S
Cosmos 1340 4.2 23:05:55 11° SW 23:09:06 31° WNW 23:12:31 10° N
ALOS 2 2.6 23:07:29 26° SSE 23:09:54 84° ENE 23:14:20 10° NNW
USA 215 3.2 23:04:06 10° ENE 23:10:41 86° SSE 23:17:15 10° WSW
Cosmos 1606 Rocket 3.7 23:09:12 10° NNW 23:13:41 70° W 23:16:05 27° S
ATLAS CENTAUR R/B 2.3 23:12:58 10° NW 23:16:58 37° WSW 23:18:46 26° SSW
Cosmos 1892 Rocket 3.7 23:14:58 28° SSE 23:17:10 61° E 23:21:34 10° NNE
NOSS 0 Rocket 4.3 23:14:36 23° S 23:18:12 48° ESE 23:24:10 10° NE
BREEZE-M DEB (TANK) 3.8 23:18:09 10° W 23:21:44 80° S 23:33:43 10° E
Cosmos 2333 Rocket 2.5 23:16:40 11° SW 23:22:17 70° WNW 23:28:01 10° NNE
Cosmos 1980 4.3 23:20:08 24° SSE 23:23:03 41° ESE 23:28:22 10° NE
Cosmos 1441 Rocket 4.3 23:21:51 24° SE 23:23:19 32° E 23:26:47 10° NNE
FALCON 9 DEB 4.4 23:24:51 22° ESE 23:24:51 22° ESE 23:26:35 10° E
SJ 16-02 3.5 23:20:34 10° N 23:23:59 21° NE 23:27:21 10° ESE
Cosmos 1464 Rocket 4.1 23:19:10 10° N 23:25:33 82° E 23:29:46 23° SSE
Cosmos 1486 Rocket 4.3 23:24:11 10° NNW 23:29:16 54° WSW 23:32:05 25° S
Cosmos 1943 Rocket 3.7 23:31:16 10° NNW 23:36:13 32° NE 23:41:09 10° ESE
Meteor 1-24 Rocket 4.5 23:32:43 13° SW 23:37:08 44° WNW 23:42:22 10° N
FAST Rocket 4.4 23:37:23 40° SSE 23:38:17 66° E 23:42:13 10° NNE
Cosmos 1354 Rocket 4.0 23:35:15 10° NNW 23:40:38 82° WSW 23:43:50 25° SSE
Cosmos 2219 Rocket 2.8 23:39:57 10° SW 23:45:33 56° NW 23:51:10 10° NNE
USA 267 3.7 23:42:18 22° SSE 23:46:07 43° SW 23:52:18 10° WNW
FALCON 9 DEB 3.3 23:49:03 41° SE 23:49:03 41° SE 23:51:57 10° ENE
Cosmos 2346 Rocket 4.4 23:45:08 24° S 23:48:59 81° E 23:55:11 10° NNE
FALCON 9 DEB 3.0 23:48:59 47° S 23:49:17 50° SSE 23:52:18 10° ENE
Cosmos 1626 Rocket 4.1 23:47:31 26° SSE 23:49:41 47° E 23:53:59 10° NNE
SL-16 R/B 3.6 23:48:19 17° SE 23:51:03 25° ESE 23:55:33 10° NE
Cosmos 1607 4.0 23:46:42 10° NW 23:53:08 75° SW 23:57:48 19° SSE
Cosmos 1992 Rocket 4.1 23:49:41 21° SSW 23:53:16 76° WNW 23:58:32 10° NNE
Cosmos 1602 Rocket 4.4 23:53:05 23° SE 23:55:20 40° E 23:59:32 10° NNE
